Wind_Speed
24 21 16 14 14 13 11 10 8 8 7 6 5 4 5 6 7 8 9 10 11 12 13 13 13 13 15 15 16 17 17 17 16 16 16 16 16 16 17 17 18 18 19 19 19 19 20 20 20 19 18 16 16 16 17 17 17 19 20 19 20 21 22 23 25 25 25 25 25 25 27 29 31 32 33 34 36 36 37 38 39 39 40 41 43
27 27 23 19 17 16 14 12 11 9 9 9 7 6 6 6 7 7 8 8 9 10 11 12 12 11 12 13 14 14 15 16 16 16 16 16 16 16 16 16 16 15 16 16 16 15 15 15 15 14 13 12 14 16 17 16 16 17 18 18 17 18 19 21 22 22 22 22 22 22 23 25 27 28 29 30 31 32 33 33 34 35 35 36 38
28 30 29 25 21 18 16 15 14 12 11 10 10 9 8 8 7 7 8 8 8 8 9 10 11 11 11 11 12 12 13 14 14 15 16 16 16 16 15 15 14 14 13 13 14 14 14 13 12 12 12 12 13 15 15 14 14 15 16 15 15 15 17 18 18 19 19 20 20 20 20 22 22 23 24 25 26 28 29 29 30 31 31 32 33
30 31 32 29 24 21 19 17 16 15 14 13 12 12 11 10 9 8 8 8 8 8 8 8 9 10 10 10 11 11 10 11 12 13 14 15 15 16 15 15 14 13 12 11 11 12 12 12 12 11 11 11 11 11 11 11 11 11 11 12 12 13 15 15 15 15 16 16 17 17 17 18 19 19 20 21 22 23 24 24 25 26 27 28 29
33 33 32 29 26 22 20 20 18 17 17 16 15 15 13 13 12 11 10 10 9 9 9 8 8 8 9 10 10 10 9 9 10 11 12 12 14 14 15 15 14 13 12 10 10 9 9 10 10 10 9 8 8 7 7 7 7 7 8 8 10 11 12 12 12 12 12 13 13 13 14 14 15 16 17 17 19 19 20 21 21 21 22 23 24
35 34 32 29 26 23 21 21 21 21 20 19 18 17 17 16 15 15 14 13 12 10 10 10 9 8 8 9 9 9 9 9 9 9 10 10 12 12 13 13 14 14 13 11 9 8 7 7 7 7 7 7 6 5 4 4 4 5 6 8 9 9 10 10 9 9 9 9 9 10 11 11 12 13 14 14 16 16 17 18 19 19 19 19 20
36 35 33 30 27 26 24 23 24 24 23 22 21 20 19 18 17 17 18 17 15 13 12 12 11 10 9 9 9 9 9 9 9 9 9 9 10 11 11 11 11 12 13 12 10 9 7 6 5 5 5 4 4 4 3 3 3 4 5 7 8 8 8 8 7 7 7 7 7 7 7 8 9 10 11 11 12 13 14 15 16 16 16 16 17
39 37 37 36 33 31 28 27 27 27 26 25 24 23 22 21 19 19 19 19 19 18 16 15 14 13 12 12 11 10 9 10 10 10 11 11 10 10 10 10 10 10 10 10 10 9 8 7 5 4 3 3 2 2 2 2 1 1 3 4 5 6 6 6 6 5 5 4 4 4 4 5 6 6 7 8 9 10 11 12 13 13 13 14 14
45 43 41 42 42 39 35 32 30 30 30 30 29 27 26 25 24 22 21 20 21 21 21 20 18 17 16 15 14 12 10 10 10 10 11 11 11 11 10 10 10 9 9 9 8 8 7 7 6 5 4 4 3 3 3 3 3 3 3 4 5 5 6 5 4 4 3 2 2 1 2 2 3 4 5 6 6 7 8 9 10 10 11 11 12
49 48 47 47 48 45 42 38 35 33 34 34 33 32 31 30 29 28 26 24 23 23 24 24 23 22 21 19 17 15 13 11 11 11 12 12 12 11 11 11 11 10 10 10 9 8 7 5 5 6 6 6 5 5 5 5 5 5 6 6 7 7 7 6 5 5 5 4 3 3 2 2 3 3 4 5 6 6 7 8 8 9 9 10 10
53 52 52 51 50 48 45 43 41 38 36 37 37 36 35 34 34 34 33 31 29 27 27 26 25 26 26 25 22 19 16 14 13 13 13 14 14 14 13 13 12 12 12 12 12 11 10 7 7 8 8 7 6 6 7 8 8 7 8 8 9 9 9 8 8 8 8 8 8 8 7 7 7 6 6 6 6 7 7 8 9 9 10 10 10
58 57 57 56 54 51 49 47 46 44 41 40 40 40 39 38 37 36 36 34 33 32 31 29 28 28 29 30 28 23 20 19 16 15 15 14 15 16 16 15 15 14 14 15 14 13 12 11 10 9 8 7 6 8 9 9 9 9 9 10 10 10 10 10 10 11 11 11 11 12 12 12 11 11 10 10 10 10 10 10 10 11 11 12 12
62 61 61 62 59 57 54 52 50 48 45 43 43 43 42 41 40 39 37 35 34 34 33 31 31 30 30 31 31 28 24 23 22 19 18 17 16 17 18 18 18 17 17 18 16 15 15 14 13 12 11 9 8 9 10 9 8 9 10 12 12 12 12 12 12 12 13 14 14 14 14 14 15 15 14 14 14 15 15 14 14 14 14 15 15
64 64 64 64 63 60 58 56 55 52 49 47 47 46 45 43 43 42 40 38 37 36 35 33 31 30 30 30 31 29 27 27 26 25 22 21 19 19 19 19 20 21 22 22 20 18 17 17 16 15 14 12 12 13 12 10 9 9 10 11 12 13 14 13 13 14 15 15 16 16 16 16 17 17 17 17 17 17 17 18 17 16 16 17 18
62 66 66 66 66 63 60 60 58 56 53 51 50 49 48 47 45 44 43 41 40 38 36 34 31 30 31 31 31 31 30 30 29 29 27 25 23 23 22 22 23 24 25 26 23 21 19 19 19 18 17 16 16 16 15 15 14 13 12 12 13 15 16 15 15 15 16 16 17 17 18 18 18 19 19 19 19 19 18 19 20 19 18 18 19
61 67 68 67 66 65 63 62 61 59 57 55 53 52 51 49 48 47 45 43 43 41 39 36 34 33 33 34 33 32 32 32 31 31 30 28 28 27 26 26 26 27 28 29 27 23 22 21 21 21 20 19 18 18 18 19 18 17 16 16 17 18 18 17 16 17 17 17 17 18 18 19 19 20 20 21 21 21 19 19 20 20 19 18 18
59 65 68 67 66 65 64 64 63 62 60 58 56 55 54 52 51 49 47 46 46 45 42 40 38 36 36 37 37 36 36 35 34 34 33 32 32 32 31 31 30 29 30 31 29 26 24 24 23 23 23 22 22 20 20 20 21 21 22 21 21 21 21 19 19 20 19 19 18 18 18 18 19 19 20 20 20 19 19 19 19 19 18 17 16
60 63 65 66 65 65 65 66 65 63 63 61 59 58 56 54 53 53 50 48 48 47 46 45 43 41 39 40 40 40 41 41 40 40 39 37 36 36 36 36 33 31 31 31 30 28 28 27 26 26 25 25 25 24 23 23 23 24 25 26 26 25 23 22 22 22 22 22 21 20 19 19 18 19 20 20 19 18 18 19 18 17 17 16 15
61 65 65 64 65 65 65 66 66 64 63 62 61 60 58 55 55 56 54 51 49 49 49 48 47 46 44 44 44 44 44 45 46 47 47 45 43 42 41 39 37 34 33 32 32 31 31 30 29 29 27 26 26 26 26 26 26 27 28 29 29 29 28 26 25 25 25 25 24 22 21 20 19 20 22 21 19 18 18 19 18 17 16 16 15
61 68 68 64 65 67 66 65 65 64 64 63 62 61 60 58 57 57 57 54 51 50 50 50 49 49 49 48 48 49 49 51 52 53 53 52 50 47 45 43 40 38 36 36 35 34 34 33 32 31 30 29 29 29 28 28 29 29 30 31 32 32 31 31 30 29 29 28 27 25 23 22 21 21 22 23 21 19 20 20 19 19 19 19 18
62 69 72 68 66 67 67 67 66 65 64 65 64 63 61 60 59 59 58 57 55 52 52 51 50 50 50 49 49 48 49 50 52 52 52 54 53 50 48 47 46 43 41 39 38 38 38 38 36 35 33 32 32 33 33 33 32 32 32 32 33 34 34 34 34 33 32 31 30 29 27 25 24 23 24 25 24 22 22 23 22 22 23 24 23
67 68 70 71 70 68 67 67 67 67 66 65 66 66 65 63 63 61 60 60 58 56 55 54 51 49 50 50 49 49 49 49 49 48 48 51 54 52 50 49 49 47 44 42 41 40 41 41 41 40 38 37 36 36 37 38 38 38 37 36 35 35 36 37 38 37 36 34 33 32 31 30 28 27 27 29 30 28 26 26 26 27 28 29 29
73 70 68 70 73 72 70 68 68 69 68 67 66 66 66 66 65 64 63 62 62 62 61 59 56 54 54 54 52 52 52 52 50 48 47 50 53 54 53 52 50 48 46 44 42 42 42 43 43 43 43 42 42 41 42 43 44 44 44 43 41 40 40 40 40 41 40 38 36 35 34 33 32 31 32 33 33 33 32 32 31 31 31 32 32
79 77 75 74 74 74 73 72 71 71 72 71 69 68 67 66 65 65 65 64 64 65 66 65 63 61 60 58 57 56 55 55 53 52 51 52 54 55 55 54 53 50 47 45 45 45 44 45 46 47 47 48 48 47 48 50 50 50 50 49 48 46 45 44 45 45 45 44 42 40 38 38 37 37 38 39 39 38 39 39 37 36 36 36 35
90 90 91 91 87 84 82 79 77 76 76 76 75 73 70 69 68 67 66 66 67 68 68 68 68 66 63 61 60 60 59 58 58 57 56 56 58 59 58 57 57 54 49 46 47 47 47 47 49 50 50 51 52 54 55 56 56 55 54 54 53 52 50 49 49 50 50 49 49 48 47 46 45 44 44 44 44 44 44 44 43 43 43 42 41
99 100 101 102 99 97 95 91 85 82 81 81 81 79 76 74 73 71 69 68 68 69 70 71 70 70 68 65 64 64 63 64 64 65 64 62 62 62 62 61 61 58 53 50 50 50 49 50 51 52 53 54 56 58 59 60 59 58 58 58 58 57 56 54 54 54 53 52 53 53 53 52 52 51 51 50 50 50 49 48 48 49 48 47 46
104 104 104 105 104 102 101 98 93 89 87 86 86 85 81 79 79 78 75 72 70 70 71 73 74 74 73 71 70 69 68 68 69 71 71 70 68 66 65 65 65 63 59 55 53 52 52 53 54 54 55 57 59 61 62 62 62 61 60 60 60 61 61 61 60 60 59 57 57 57 57 56 57 57 57 57 57 56 55 53 53 53 53 51 50
106 106 106 107 107 106 104 101 98 96 94 91 90 90 87 84 82 82 82 80 77 74 73 73 75 77 78 77 75 73 72 72 73 73 74 75 74 72 70 69 69 67 63 58 55 55 55 56 57 58 58 59 60 62 64 65 65 64 63 63 63 64 66 67 67 67 66 64 63 62 60 60 60 61 61 62 62 62 61 60 60 59 57 56 55
107 107 107 107 108 109 108 105 101 100 100 97 95 94 94 91 89 88 88 87 86 84 82 80 78 78 80 80 79 77 76 76 76 77 77 78 78 77 76 74 73 71 67 64 63 62 61 61 62 62 61 62 62 64 66 67 68 68 67 67 67 67 68 71 72 73 72 70 69 67 65 63 64 64 65 66 66 66 67 67 66 65 63 62 62
110 108 108 107 108 109 110 108 105 103 104 103 101 99 99 98 97 96 94 93 93 94 92 91 89 86 84 83 82 81 80 79 79 79 80 80 81 81 80 78 76 75 73 72 72 71 71 71 72 72 70 69 68 69 70 71 71 72 72 72 73 74 75 77 78 77 77 76 74 72 70 69 69 68 68 69 70 70 70 71 71 70 69 68 68
112 111 110 109 109 110 110 109 107 106 105 106 105 104 104 104 104 103 101 100 100 100 100 99 98 96 94 91 88 86 85 84 83 83 84 84 85 84 83 82 81 81 81 80 80 79 80 81 82 82 82 81 80 80 80 80 79 78 78 79 80 81 83 84 84 83 82 82 81 79 77 76 75 75 74 74 74 73 73 74 74 74 74 74 74
113 113 113 113 113 113 112 112 111 109 108 107 106 106 107 108 108 108 107 106 106 106 105 105 104 104 103 101 98 95 92 90 89 89 89 89 89 89 88 88 88 88 88 87 87 87 88 87 87 86 86 86 87 86 85 85 84 83 83 83 84 84 85 86 87 87 87 86 85 84 84 83 83 83 82 81 79 77 77 77 77 78 78 79 79
117 115 115 115 115 115 116 115 115 114 112 111 109 108 107 108 109 109 110 110 110 110 110 110 109 108 108 108 107 104 101 99 97 95 95 95 95 95 95 95 95 95 95 94 94 95 95 95 93 92 90 90 89 89 88 88 87 87 86 87 88 89 88 88 88 90 90 90 89 88 89 89 89 89 88 86 85 83 82 81 81 82 83 83 84
119 119 118 117 116 117 117 118 118 117 116 115 114 113 111 110 109 110 110 111 112 112 111 111 111 111 111 112 112 112 111 109 106 104 102 101 101 102 102 102 102 102 102 102 102 103 103 103 101 99 98 97 96 96 96 96 95 94 93 93 93 94 94 93 92 92 93 94 94 93 94 94 94 93 92 91 89 87 86 85 86 86 87 88 88
119 119 120 120 120 120 120 121 121 121 120 118 118 117 116 115 113 112 112 112 113 113 113 113 113 112 113 114 114 115 116 116 115 114 111 109 108 107 107 108 109 109 109 109 109 109 109 109 108 107 106 105 104 103 102 101 101 100 99 99 98 97 97 96 96 96 96 97 97 98 97 97 97 95 94 93 92 91 90 90 90 91 92 93 93
118 119 119 120 120 121 122 123 124 124 123 122 121 120 120 119 117 116 116 115 115 115 115 114 114 114 115 115 115 115 116 118 119 119 119 118 117 115 114 113 113 114 115 115 116 116 115 115 114 113 113 112 112 111 110 108 107 105 104 103 102 101 99 98 97 97 97 98 98 98 98 98 98 97 96 95 93 93 93 93 93 94 94 95 95
118 118 119 119 120 120 121 122 124 125 125 124 124 124 123 122 121 120 120 120 119 118 117 116 116 117 118 118 117 117 117 117 119 120 121 122 123 122 121 120 119 119 119 119 119 119 119 119 119 119 119 118 118 118 117 115 113 112 110 109 108 106 105 103 102 101 101 101 102 101 101 100 99 98 97 96 95 95 96 96 96 96 97 97 96
117 117 117 118 119 119 120 120 121 122 123 124 125 125 126 125 124 123 122 121 121 120 120 119 119 120 120 120 119 119 118 118 119 120 120 121 123 124 124 124 124 124 124 123 123 123 122 122 122 122 121 121 120 120 119 118 118 117 116 115 114 112 111 109 108 107 107 108 108 108 108 107 105 104 102 101 101 100 100 100 101 101 101 101 100
120 120 119 119 118 118 118 118 119 119 120 121 123 124 125 125 125 124 123 123 122 121 120 120 121 121 122 122 121 120 119 119 119 120 121 122 123 123 124 124 124 125 126 126 126 126 126 126 126 125 124 123 122 121 120 120 120 120 121 120 119 117 116 115 114 114 114 114 114 114 113 113 112 111 110 109 109 109 108 108 108 108 107 106 106
125 124 124 123 122 121 120 119 118 118 118 118 119 120 122 123 124 124 124 124 123 122 121 120 121 121 122 123 123 123 122 120 120 120 121 122 123 124 124 124 124 125 125 126 126 126 126 126 127 127 126 125 124 122 122 121 122 122 122 122 120 119 118 118 118 119 119 119 119 118 118 117 117 117 117 116 117 117 117 117 117 116 115 115 114
129 129 129 128 128 127 126 124 123 121 120 119 118 118 119 121 122 123 124 124 123 123 123 123 122 122 122 122 123 124 123 122 121 121 121 123 124 125 126 126 125 125 125 126 126 127 126 126 126 126 126 126 125 124 124 124 124 124 123 122 120 119 119 119 120 120 121 121 121 121 120 120 120 120 121 121 121 122 122 122 121 120 120 120 120
133 133 133 133 133 133 132 131 129 128 127 125 124 122 121 120 120 120 120 119 119 120 121 122 123 123 123 124 124 125 124 123 121 121 121 123 124 126 126 127 127 127 127 127 127 128 128 128 127 127 126 126 126 126 126 127 127 126 125 123 122 121 121 121 121 121 121 121 122 122 121 121 121 121 122 122 123 123 122 122 122 121 121 122 123
137 137 137 137 137 137 136 134 133 133 131 130 129 127 125 124 122 120 118 116 115 114 114 116 117 119 120 122 125 126 126 126 124 123 122 123 124 125 126 126 127 127 127 128 128 129 129 129 128 128 128 128 129 129 129 129 128 128 127 127 126 125 125 124 124 124 123 123 123 123 123 123 123 123 123 124 124 124 124 123 123 123 123 123 124
140 140 140 140 140 140 139 138 137 136 135 133 132 130 129 128 127 126 124 123 122 121 120 119 119 118 118 119 121 123 124 124 125 125 125 125 125 126 126 127 128 128 128 128 128 128 128 128 128 128 128 129 130 129 129 128 128 128 128 129 128 128 128 127 127 126 126 126 126 126 126 126 126 126 126 126 126 126 126 126 126 126 126 126 126
141 140 141 141 142 142 141 140 140 139 138 137 136 135 134 134 133 132 132 131 131 130 128 126 124 122 121 120 120 121 121 120 120 120 121 122 122 123 125 126 128 129 130 129 129 128 128 128 128 129 129 129 129 129 128 128 127 128 128 128 129 129 129 128 128 128 128 128 128 128 128 128 128 128 128 128 128 129 129 129 129 129 129 130 130
142 142 142 142 143 144 145 144 142 141 140 140 139 139 138 138 137 137 137 137 136 135 133 131 129 126 124 123 123 124 124 123 121 120 119 118 118 118 119 121 123 125 127 127 127 127 127 127 127 128 128 129 129 128 128 128 128 128 128 128 129 129 129 128 128 128 128 128 129 129 129 129 129 129 129 129 129 130 130 130 130 131 131 131 132
140 143 144 144 144 145 146 146 145 143 141 140 140 140 140 140 140 140 139 139 139 139 138 136 134 132 131 130 130 130 131 131 131 130 128 127 125 124 124 124 125 126 127 127 127 127 126 126 126 127 127 128 128 128 128 128 128 128 128 129 129 128 128 128 127 128 128 128 128 128 129 129 129 129 129 130 130 130 130 130 131 131 131 131 131
134 138 141 143 143 143 144 144 143 142 141 140 139 140 141 142 142 141 140 140 140 140 140 139 138 136 135 134 134 134 135 136 137 137 136 135 134 133 132 131 131 132 132 132 132 131 130 130 129 130 130 130 130 129 129 129 129 129 129 129 130 129 129 129 130 130 130 129 129 129 129 130 130 130 131 131 131 131 132 132 131 131 132 132 132
128 132 134 136 136 136 136 137 137 137 137 138 138 139 140 140 139 139 139 139 139 139 139 139 139 139 138 137 136 136 137 137 138 139 138 138 137 137 136 135 135 135 136 137 137 136 135 134 134 134 134 134 133 132 132 131 131 132 132 132 132 133 132 132 133 133 132 132 132 132 132 133 133 133 133 133 134 134 134 134 134 134 134 134 134
122 125 127 128 129 130 130 131 130 129 129 131 132 133 134 135 135 136 136 136 135 135 135 136 137 138 138 137 137 136 136 136 137 138 139 139 138 138 137 136 136 137 138 139 139 138 137 136 137 137 137 137 137 137 136 137 137 137 137 137 137 137 137 136 136 136 136 135 135 135 135 135 135 135 135 135 135 135 135 136 136 136 136 137 137
113 117 120 122 123 124 124 124 123 123 122 123 124 125 126 127 128 129 130 130 129 128 128 129 131 132 133 133 132 132 132 133 134 136 137 137 137 136 135 134 134 135 136 137 137 137 136 136 137 137 138 138 138 138 139 139 139 139 139 139 139 139 139 139 139 139 139 138 138 138 138 138 138 138 138 137 137 138 138 138 138 138 138 138 138
Wind_Direction
269 268 260 254 257 261 265 274 280 280 278 277 282 309 333 345 354 360 7 15 24 28 28 28 30 31 34 38 40 40 40 41 42 42 45 50 53 53 52 51 52 55 61 69 79 87 93 95 95 95 92 84 71 67 72 77 81 80 73 71 78 82 82 84 88 89 89 87 85 84 84 84 84 82 81 81 80 79 78 78 78 77 77 76 76
268 271 267 256 251 255 259 262 268 269 269 266 264 270 289 309 325 336 345 354 6 18 22 20 19 21 25 31 37 38 38 39 40 40 41 44 49 53 55 55 53 51 52 57 64 72 81 88 92 93 87 76 69 74 80 83 84 81 75 73 77 80 82 85 87 88 88 87 86 85 83 83 83 83 81 81 79 77 76 76 76 76 76 75 75
265 271 272 262 249 249 254 256 259 260 261 260 258 257 261 275 294 309 321 331 339 352 7 11 9 10 13 18 27 31 32 34 36 38 39 39 42 46 53 58 59 56 52 49 50 54 60 66 73 77 76 76 78 79 77 77 80 80 78 77 79 83 87 88 87 87 87 87 86 85 82 81 80 79 78 77 76 74 73 72 71 71 72 72 73
262 268 270 262 251 246 249 253 256 255 256 257 258 257 257 261 270 282 292 304 315 323 334 348 358 2 1 4 12 19 22 24 26 30 34 37 39 41 45 52 59 60 58 53 48 46 48 50 53 58 64 75 82 80 74 73 78 81 80 81 85 90 93 92 89 88 86 85 85 84 82 80 78 76 74 73 71 70 71 69 67 66 66 67 69
261 263 261 255 251 249 248 250 255 255 254 254 256 258 258 258 261 265 271 279 289 299 305 314 331 347 350 350 355 1 6 11 14 17 22 28 34 37 40 43 49 55 57 57 53 48 46 47 47 49 53 61 67 70 72 74 81 86 84 86 94 98 98 97 95 93 88 86 85 84 82 80 77 74 72 68 66 67 68 66 64 62 61 62 64
257 257 251 247 248 250 249 249 251 252 253 252 252 253 254 255 258 259 262 266 272 280 287 293 305 319 329 333 336 341 348 354 360 4 7 13 21 28 33 37 40 45 49 51 51 49 46 45 45 46 48 46 44 48 58 73 92 101 101 105 112 114 111 108 106 102 97 91 87 84 80 76 72 69 66 64 63 63 63 61 60 59 59 60 61
250 248 243 245 251 253 252 253 253 252 253 253 253 253 252 253 256 259 261 262 265 272 278 282 289 298 306 312 316 323 331 337 341 344 350 358 5 12 19 26 33 39 43 45 45 42 37 38 38 38 41 43 41 32 27 47 91 116 125 128 131 133 131 127 122 115 106 98 89 81 74 68 64 60 57 56 55 56 55 54 54 53 53 53 53
241 240 241 246 253 255 254 256 258 257 255 253 254 254 253 253 256 261 265 265 267 271 275 278 280 284 290 297 301 306 312 320 327 330 334 340 347 352 357 5 17 24 31 36 39 37 34 30 26 20 11 8 11 360 342 341 337 187 175 167 161 161 159 155 147 136 124 110 98 79 65 57 53 48 44 43 43 43 43 41 41 42 42 42 42
239 238 241 247 253 256 256 257 260 260 257 255 253 253 254 254 256 259 264 267 270 274 276 278 279 279 281 286 288 290 295 303 310 317 320 323 328 333 337 343 352 358 4 12 18 24 24 21 18 8 344 326 319 305 290 286 279 263 248 234 220 210 204 197 188 180 171 159 139 97 55 37 29 24 23 22 21 22 21 22 23 24 25 27 29
240 240 241 246 253 255 256 257 260 261 259 258 256 255 254 255 257 259 261 263 267 273 277 279 280 279 278 278 279 282 285 288 294 303 308 310 312 315 319 325 331 334 338 343 346 346 346 353 4 360 344 329 323 313 293 279 271 264 263 260 257 253 248 243 239 236 235 237 242 253 269 292 314 332 344 351 355 358 358 359 1 2 3 5 7
240 242 243 246 250 251 252 256 259 259 258 258 258 258 257 256 257 260 262 265 268 271 274 275 275 274 274 276 278 278 278 280 286 296 301 304 303 301 302 308 311 314 319 320 322 325 326 331 346 352 345 335 327 321 307 292 282 275 271 268 268 269 267 265 263 262 262 260 259 261 264 268 275 283 292 302 312 321 328 333 338 340 341 341 343
240 240 240 241 245 247 249 253 256 257 256 256 257 258 258 258 258 260 262 266 269 271 272 271 268 269 272 274 277 276 275 275 278 284 291 296 298 294 292 292 295 299 302 301 304 312 317 321 329 335 334 326 320 324 318 303 295 292 288 282 276 272 269 268 267 267 267 267 265 267 270 272 274 276 280 285 290 295 301 306 312 317 319 321 323
241 238 236 237 241 244 246 250 254 255 254 254 254 255 257 259 260 262 263 264 267 270 272 271 268 269 271 270 271 273 273 272 272 276 282 288 293 291 288 286 284 285 288 289 294 299 303 311 320 325 327 321 314 322 325 313 302 304 302 294 286 281 275 269 266 266 266 267 269 271 273 275 278 280 281 283 286 289 293 296 299 302 304 306 307
240 236 234 235 238 242 244 247 252 254 253 253 253 252 254 256 260 263 264 264 264 266 269 271 269 269 268 267 268 271 270 269 270 271 274 280 285 286 284 281 274 273 279 285 289 291 294 301 308 312 316 314 309 314 318 309 299 301 302 294 290 290 287 280 274 270 268 268 272 275 276 276 277 281 283 284 285 286 289 292 294 294 294 295 297
239 234 232 235 238 240 241 244 250 253 252 251 252 252 252 253 257 262 264 264 262 261 264 267 266 264 263 264 268 271 270 267 267 267 269 273 278 281 282 280 273 271 275 282 284 286 289 293 296 298 302 304 306 309 309 301 294 292 292 292 292 292 289 285 282 278 273 272 275 279 280 280 279 281 282 283 284 285 285 287 289 290 290 290 291
238 234 231 234 238 239 240 243 247 250 250 249 249 250 250 251 253 258 261 263 262 260 258 259 259 258 259 261 264 268 269 268 267 267 268 270 274 278 279 277 272 270 272 276 279 280 281 284 286 289 293 295 297 300 303 302 296 290 288 292 294 292 289 288 287 282 277 275 276 277 279 282 283 285 285 286 288 289 288 286 286 287 288 288 289
234 233 232 234 238 240 241 243 246 247 248 249 248 248 248 249 250 253 256 259 261 259 255 254 254 255 257 259 261 264 267 268 268 268 269 270 271 274 275 273 271 269 269 272 275 275 276 279 281 284 287 289 290 291 294 296 294 289 286 290 292 290 287 288 288 284 280 277 274 272 274 277 282 286 287 289 292 295 294 291 289 289 290 290 288
232 231 233 235 237 240 242 244 246 247 248 248 248 247 247 247 247 249 251 253 256 257 255 253 253 253 255 257 260 263 265 267 268 268 270 271 270 270 271 271 270 268 266 268 270 272 273 275 278 280 282 283 285 286 286 286 286 285 285 287 289 288 285 285 285 284 282 279 274 270 268 270 274 279 282 285 291 295 295 293 292 293 293 293 292
231 228 230 233 234 237 241 244 245 247 248 248 247 247 247 247 247 247 247 248 251 254 255 254 254 254 254 255 257 260 262 265 267 269 271 271 269 267 267 268 268 267 266 266 267 268 268 269 272 275 278 279 280 281 282 282 281 280 281 283 285 285 285 285 285 284 283 280 275 269 266 265 267 270 272 276 282 288 290 291 295 297 296 295 296
231 227 228 230 231 233 237 240 242 245 247 247 247 247 247 247 247 246 246 246 248 251 252 253 254 255 256 256 258 259 261 262 265 267 268 268 267 265 264 264 264 264 264 264 264 265 265 266 267 270 274 277 278 278 278 279 278 278 278 279 280 282 283 284 284 283 281 279 276 272 267 264 263 263 266 269 271 275 279 284 291 295 296 295 296
230 226 226 228 229 229 231 235 238 241 243 245 246 246 246 246 247 247 246 245 246 248 250 249 250 253 255 258 259 260 261 261 262 264 265 264 263 263 263 262 261 260 260 260 261 263 264 265 266 268 270 273 276 278 279 279 278 277 276 277 278 279 280 281 282 281 279 277 276 274 270 266 263 262 264 267 267 268 272 279 284 287 289 291 292
231 227 225 226 228 229 229 231 234 236 238 242 244 245 245 245 245 247 248 245 243 244 245 245 246 250 254 256 258 258 258 258 260 262 262 260 259 259 259 259 258 256 255 256 257 260 263 265 267 269 270 270 271 273 276 278 279 279 278 278 278 278 279 280 280 280 278 275 273 273 271 269 267 266 267 268 268 268 269 273 276 279 282 284 286
230 230 228 228 228 229 230 232 234 235 235 237 241 243 245 245 246 247 247 246 244 243 243 244 244 247 251 255 257 258 257 257 257 258 257 258 258 257 255 253 253 251 250 251 253 255 258 262 266 268 270 271 271 272 274 276 279 280 280 280 279 278 278 279 279 277 275 274 273 271 270 270 270 271 271 271 271 271 271 270 270 272 275 277 279
230 232 234 235 233 232 232 234 238 240 239 237 237 239 241 243 244 246 246 246 245 244 244 244 244 246 250 253 256 257 258 257 256 254 253 253 255 255 253 250 249 248 246 247 249 251 253 258 264 267 269 271 272 274 276 278 280 281 281 280 279 278 277 277 278 277 276 275 274 273 271 271 272 274 276 277 276 276 275 275 274 274 275 274 274
234 235 239 242 242 240 239 240 241 242 243 241 238 237 238 239 240 241 243 244 244 244 244 244 243 244 248 250 252 255 256 255 254 253 254 254 254 253 252 251 249 248 246 246 248 251 254 257 262 266 267 268 270 273 276 278 279 280 280 279 278 276 275 274 274 275 276 276 276 276 275 274 274 275 276 277 278 277 277 278 279 279 279 278 276
241 240 241 244 246 245 246 246 245 243 244 244 241 239 238 237 238 238 238 239 240 242 244 244 243 243 245 248 250 253 254 254 254 253 254 256 256 254 253 253 252 250 249 248 249 252 255 257 259 262 265 267 269 271 273 275 276 276 277 278 278 277 275 273 271 272 274 276 276 276 275 275 275 275 274 275 275 275 275 277 278 278 279 279 280
246 245 245 245 247 247 248 249 248 245 244 244 243 241 238 237 237 237 237 237 238 240 242 244 244 244 245 247 249 251 253 254 255 254 254 254 255 254 252 252 252 252 251 250 249 250 252 254 256 258 261 264 267 269 271 272 272 273 274 275 275 276 275 274 273 273 274 275 275 275 276 276 276 275 274 274 273 273 273 273 274 275 276 277 278
246 247 247 247 248 249 249 250 249 247 245 244 244 242 240 238 238 238 238 238 239 239 241 243 244 245 246 248 249 250 251 252 253 254 255 254 253 252 251 249 249 250 250 250 250 251 251 253 254 256 258 261 264 266 268 269 270 271 271 271 271 272 274 274 275 275 275 274 274 275 275 276 276 276 275 274 273 272 271 272 272 273 274 274 275
246 247 247 247 248 249 250 251 250 249 247 245 244 244 243 242 242 243 242 241 240 241 242 243 244 245 246 248 249 250 251 251 251 252 253 253 252 251 250 249 247 246 248 251 254 255 256 257 258 258 259 261 262 264 265 267 269 270 270 270 270 271 272 274 274 274 273 273 273 273 273 274 276 277 277 276 274 273 271 271 271 272 272 273 274
245 246 246 247 248 249 250 250 251 250 249 247 245 244 244 245 246 247 247 246 245 244 245 247 248 248 247 246 247 248 249 250 250 250 250 251 251 250 249 248 245 244 248 253 255 256 258 260 262 262 262 261 262 263 265 267 268 269 269 270 270 272 273 274 274 273 272 272 272 272 272 273 275 277 277 277 276 274 272 272 271 272 272 272 273
244 245 246 246 247 248 249 250 250 250 250 249 247 246 245 245 247 248 249 249 249 249 250 251 252 253 252 250 248 246 246 248 249 249 248 248 248 248 247 245 244 245 250 255 257 258 261 263 265 265 264 263 263 264 265 266 268 269 270 271 272 273 275 275 275 273 272 272 272 272 272 272 274 275 277 276 275 274 273 272 272 272 272 272 272
244 244 245 246 247 248 249 249 250 250 250 250 249 248 247 247 247 249 250 250 251 251 252 253 254 255 255 255 253 250 248 247 248 249 248 247 247 246 246 246 246 248 251 254 257 260 263 264 265 265 265 265 265 265 265 266 267 269 270 271 272 273 275 276 276 275 274 274 273 272 272 272 272 274 276 277 275 274 273 273 272 272 272 272 272
245 245 245 246 246 247 248 249 249 250 250 250 250 250 250 250 250 250 250 250 251 251 252 253 254 255 256 257 257 256 253 251 249 249 249 249 248 248 248 248 249 250 253 255 257 259 262 263 265 265 266 266 266 266 267 268 269 270 270 270 271 273 274 276 277 276 275 274 274 274 273 273 273 274 276 277 277 276 275 274 273 273 273 273 273
246 246 247 246 246 247 247 248 249 249 250 251 251 251 251 251 251 252 252 252 252 252 252 253 254 254 255 255 256 257 257 256 254 252 251 251 250 250 251 251 252 252 254 256 257 259 261 263 265 266 267 268 268 268 269 271 272 272 272 272 273 274 275 276 277 277 275 274 273 274 274 275 275 276 277 277 277 277 276 275 274 274 273 273 274
247 247 248 247 247 247 247 248 248 249 250 250 251 251 252 252 252 253 253 253 253 253 254 254 254 254 254 254 254 255 255 256 257 256 255 254 253 253 253 254 255 256 257 258 259 260 261 263 264 266 267 268 269 270 270 271 272 272 273 273 273 274 275 275 276 277 276 274 273 273 274 274 275 276 277 278 278 278 278 277 276 275 275 275 275
247 248 248 248 248 248 248 248 249 249 250 250 251 251 252 252 253 254 254 254 254 254 254 254 255 254 254 254 254 254 254 255 256 257 258 258 257 256 256 256 257 257 259 260 261 262 263 264 265 266 267 268 269 270 270 271 272 272 272 272 272 272 273 273 273 274 274 273 273 273 273 274 275 276 276 277 277 277 276 276 275 275 275 275 275
247 247 248 249 249 249 249 249 249 250 250 250 250 251 252 253 253 254 254 254 254 254 255 255 255 255 255 254 254 254 254 254 255 256 257 258 259 259 260 260 260 260 260 261 262 262 263 264 265 265 266 267 268 269 269 270 270 270 270 270 271 271 271 272 272 272 272 271 271 270 270 271 272 273 274 274 274 274 274 274 274 273 273 273 273
248 248 249 249 250 250 250 250 250 251 251 251 251 251 252 252 253 254 254 254 254 254 254 254 255 255 255 255 255 254 254 254 255 255 256 257 258 258 259 260 261 262 262 263 263 264 264 264 265 265 266 267 267 268 269 269 270 270 270 270 270 271 271 271 271 271 271 270 270 270 269 269 269 269 269 270 270 270 270 271 271 271 271 271 271
249 249 250 250 250 250 250 251 251 251 251 251 251 251 252 252 252 252 253 253 253 253 254 254 254 255 255 255 255 255 255 255 255 255 256 256 257 258 258 259 260 261 262 262 263 264 265 265 266 266 266 267 267 268 269 269 270 270 270 270 271 271 271 271 271 270 270 269 269 269 269 269 269 269 268 268 268 268 268 269 269 269 268 268 269
250 250 250 250 250 251 251 251 251 252 252 252 252 252 252 253 253 252 252 252 253 253 253 254 254 255 256 256 256 255 255 254 255 256 256 257 257 257 258 258 259 260 261 261 262 263 264 265 265 266 266 267 267 268 268 269 269 269 269 270 271 271 271 271 271 270 270 270 270 269 269 269 269 269 269 269 268 269 269 270 270 269 268 267 267
251 251 251 251 251 252 252 252 252 253 253 254 254 254 254 254 253 253 253 253 253 253 253 254 254 255 256 257 257 256 256 255 255 255 256 257 258 258 258 259 259 259 260 261 262 262 263 264 265 265 266 267 267 267 268 268 268 269 269 270 270 270 270 270 270 270 270 270 270 270 270 270 270 269 269 269 269 269 270 270 270 270 269 268 268
251 251 251 252 253 253 253 254 254 254 255 255 255 255 255 255 255 254 254 254 254 254 254 254 254 255 256 257 257 257 257 257 256 256 256 257 258 258 259 259 259 260 260 261 261 262 263 263 264 265 266 266 267 267 267 267 268 268 269 269 269 269 269 269 269 270 270 270 270 270 270 270 270 270 270 270 270 270 270 270 270 270 269 269 268
251 251 251 252 253 253 254 254 255 255 255 255 255 255 255 255 255 255 254 254 254 255 256 256 256 256 256 257 258 258 259 259 258 258 257 257 258 259 259 260 260 260 261 261 261 262 262 263 264 264 265 265 266 266 267 267 268 268 269 269 269 269 269 269 269 269 269 269 270 270 270 270 270 270 270 270 271 271 271 271 271 270 270 269 269
251 251 252 253 253 253 254 254 254 255 255 255 255 255 255 255 255 255 255 255 256 257 258 258 258 258 258 258 259 259 260 260 259 259 258 258 259 259 260 261 261 261 261 261 262 262 263 264 264 264 264 265 265 266 266 267 268 268 268 269 269 269 269 269 269 269 269 269 269 269 270 270 270 270 270 270 270 271 271 271 271 271 271 271 271
252 252 252 253 254 254 254 254 254 254 255 255 255 255 256 256 256 256 257 257 258 259 259 259 259 259 259 259 259 260 260 260 260 260 259 259 259 260 261 262 262 262 262 262 262 263 263 263 264 264 265 265 265 266 266 267 267 267 268 268 268 269 269 269 269 269 270 270 270 270 270 270 270 270 270 270 270 270 271 271 271 271 271 271 271
253 253 253 253 253 254 255 255 254 254 255 255 256 256 257 257 257 257 258 258 259 259 259 259 259 259 258 259 260 261 261 261 261 261 260 260 260 260 261 262 263 264 264 264 264 264 264 264 264 264 265 265 266 266 266 267 267 267 267 267 268 268 268 269 269 269 269 270 270 270 270 270 270 270 271 271 271 271 271 271 271 271 271 271 272
253 254 254 253 253 254 255 256 256 256 255 255 256 256 257 257 258 258 258 259 259 260 260 260 260 259 259 259 260 261 262 262 262 262 262 261 261 261 262 262 263 264 264 265 265 265 265 265 265 265 265 266 266 266 267 267 267 267 267 267 268 268 268 269 269 269 269 270 270 270 270 270 271 271 271 271 272 272 272 272 272 272 272 272 272
253 254 254 255 255 255 255 256 257 257 257 257 257 257 257 257 258 258 258 259 259 260 260 261 261 261 261 261 261 261 261 262 262 262 262 263 263 263 263 263 263 264 264 265 265 265 265 266 266 266 266 267 267 267 267 267 267 267 267 268 268 268 269 269 269 269 270 270 270 270 270 270 271 271 272 272 272 272 273 273 273 273 273 273 273
253 254 255 255 256 257 257 257 257 257 258 258 258 258 258 259 259 259 259 259 259 260 260 261 262 262 262 262 261 261 261 262 262 263 263 263 263 263 263 263 264 264 264 264 264 265 265 265 266 266 267 267 267 267 267 267 267 268 268 268 269 269 269 269 270 270 270 270 270 270 271 271 271 272 272 272 272 272 273 273 273 273 273 274 274
253 254 255 256 256 257 257 257 257 257 257 257 257 258 258 259 260 260 260 261 261 261 261 261 261 262 262 262 262 262 262 262 263 263 263 264 264 263 263 263 264 264 264 264 264 265 265 265 265 266 266 267 267 267 267 267 268 268 269 269 269 270 270 270 270 271 271 271 271 271 272 272 272 272 272 273 273 273 273 273 273 274 274 274 274
253 254 255 256 256 256 257 257 258 258 258 258 258 258 258 258 259 260 261 261 262 262 262 262 262 262 262 262 263 263 263 263 263 263 263 264 264 264 264 264 264 264 264 264 264 264 265 265 265 265 265 266 266 266 267 267 267 268 268 269 269 270 270 270 271 271 271 271 272 272 272 272 273 273 273 273 273 273 274 274 274 274 275 275 275
Height
11027 11028 11030 11031 11031 11031 11031 11031 11031 11030 11030 11030 11029 11029 11029 11028 11028 11028 11028 11028 11027 11026 11025 11025 11025 11025 11024 11023 11022 11021 11019 11018 11017 11016 11016 11015 11015 11014 11014 11013 11013 11012 11012 11012 11011 11011 11011 11010 11010 11009 11009 11008 11008 11007 11007 11007 11006 11006 11005 11004 11004 11003 11002 11001 11000 11000 10999 10999 10998 10997 10997 10996 10995 10994 10993 10992 10991 10990 10988 10987 10986 10985 10984 10983 10982
11025 11026 11028 11029 11030 11030 11030 11031 11031 11030 11030 11030 11030 11029 11029 11029 11028 11028 11028 11027 11027 11026 11026 11026 11026 11025 11025 11024 11023 11022 11021 11019 11018 11017 11017 11016 11016 11016 11015 11015 11015 11014 11014 11014 11014 11013 11013 11012 11012 11011 11011 11010 11010 11009 11009 11009 11009 11008 11007 11006 11006 11005 11004 11004 11003 11002 11002 11002 11001 11000 11000 10999 10998 10997 10996 10996 10995 10994 10992 10991 10990 10989 10988 10987 10986
11024 11024 11025 11027 11028 11028 11029 11029 11030 11030 11030 11029 11029 11029 11029 11029 11028 11028 11027 11027 11027 11027 11027 11027 11027 11026 11026 11025 11024 11023 11022 11021 11020 11019 11018 11017 11017 11017 11017 11017 11016 11016 11016 11016 11015 11015 11015 11014 11014 11013 11012 11012 11011 11011 11011 11011 11011 11010 11009 11008 11008 11007 11007 11006 11005 11005 11005 11004 11004 11003 11003 11002 11001 11001 11000 10999 10998 10997 10996 10995 10994 10993 10992 10991 10990
11022 11022 11023 11024 11026 11026 11027 11028 11028 11028 11028 11028 11028 11028 11028 11028 11027 11027 11027 11026 11026 11027 11027 11027 11027 11027 11026 11025 11025 11024 11023 11022 11021 11020 11019 11019 11018 11018 11018 11018 11018 11018 11017 11017 11017 11017 11016 11016 11015 11015 11014 11014 11013 11013 11013 11013 11012 11012 11011 11011 11010 11010 11009 11008 11008 11008 11007 11006 11006 11006 11005 11005 11004 11003 11003 11002 11001 11000 10999 10998 10998 10997 10996 10996 10995
11019 11020 11020 11021 11023 11024 11025 11025 11026 11026 11026 11026 11026 11026 11026 11026 11026 11026 11026 11026 11026 11027 11027 11027 11027 11027 11026 11026 11025 11024 11023 11022 11022 11021 11020 11020 11020 11019 11019 11019 11019 11019 11019 11018 11018 11018 11018 11018 11017 11017 11016 11016 11016 11015 11015 11014 11014 11014 11013 11013 11012 11012 11011 11011 11011 11010 11009 11008 11008 11008 11007 11007 11006 11006 11005 11004 11003 11002 11002 11001 11001 11000 11000 10999 10999
11015 11016 11017 11019 11020 11021 11022 11023 11024 11024 11024 11024 11025 11025 11025 11025 11025 11025 11025 11025 11025 11026 11026 11027 11027 11027 11027 11026 11025 11024 11023 11023 11022 11022 11021 11021 11020 11020 11020 11020 11020 11020 11020 11020 11020 11019 11019 11019 11019 11019 11018 11018 11017 11017 11016 11016 11016 11015 11015 11015 11014 11014 11013 11013 11012 11012 11011 11010 11010 11010 11009 11009 11008 11007 11007 11006 11005 11005 11004 11004 11004 11003 11003 11002 11002
11011 11012 11014 11015 11016 11018 11019 11020 11021 11022 11023 11023 11024 11024 11024 11024 11024 11024 11024 11024 11025 11025 11026 11026 11026 11026 11026 11026 11025 11024 11023 11023 11022 11022 11022 11021 11021 11021 11021 11020 11020 11021 11021 11021 11021 11021 11020 11020 11020 11020 11020 11019 11019 11018 11018 11017 11017 11017 11016 11016 11015 11015 11015 11014 11014 11013 11012 11012 11012 11011 11011 11010 11010 11009 11008 11008 11007 11007 11007 11006 11006 11006 11005 11005 11004
11008 11009 11010 11011 11012 11013 11015 11016 11018 11020 11021 11022 11022 11023 11023 11023 11023 11023 11024 11024 11024 11024 11024 11025 11025 11025 11025 11025 11024 11024 11023 11023 11022 11022 11022 11022 11021 11021 11021 11021 11021 11021 11021 11021 11021 11021 11021 11021 11020 11020 11020 11020 11019 11019 11018 11018 11018 11018 11017 11017 11017 11016 11016 11015 11015 11014 11014 11013 11013 11013 11012 11012 11011 11011 11010 11010 11009 11009 11008 11008 11008 11007 11007 11006 11006
11004 11006 11007 11006 11006 11007 11009 11012 11015 11016 11018 11019 11020 11021 11021 11021 11022 11022 11023 11023 11023 11023 11024 11024 11024 11024 11024 11023 11023 11023 11022 11022 11022 11022 11022 11022 11022 11021 11021 11021 11020 11020 11020 11020 11020 11021 11021 11021 11020 11020 11020 11020 11020 11020 11019 11019 11018 11018 11018 11018 11017 11017 11016 11016 11016 11015 11015 11014 11014 11014 11013 11013 11013 11012 11012 11011 11011 11010 11010 11009 11009 11008 11008 11007 11007
11000 11002 11002 11001 11001 11003 11005 11008 11010 11012 11014 11015 11016 11017 11018 11018 11019 11020 11020 11021 11021 11022 11023 11023 11024 11023 11022 11021 11021 11021 11021 11021 11021 11021 11021 11021 11021 11021 11020 11020 11020 11019 11019 11019 11019 11019 11019 11020 11020 11021 11021 11021 11020 11021 11020 11020 11019 11019 11018 11018 11017 11017 11017 11017 11016 11016 11016 11015 11015 11015 11014 11014 11013 11013 11013 11012 11012 11011 11011 11010 11010 11009 11009 11008 11008
10996 10998 10998 10996 10996 10998 11000 11002 11005 11008 11010 11011 11012 11013 11014 11015 11016 11017 11017 11018 11019 11020 11020 11021 11022 11021 11020 11020 11020 11021 11020 11020 11020 11019 11019 11020 11020 11020 11020 11019 11019 11018 11018 11017 11017 11017 11018 11019 11020 11020 11021 11021 11021 11021 11021 11020 11019 11019 11019 11018 11018 11017 11017 11017 11017 11016 11016 11016 11015 11015 11014 11014 11013 11013 11013 11012 11012 11011 11011 11010 11010 11009 11009 11008 11008
10989 10992 10992 10990 10990 10992 10995 10997 11000 11002 11004 11007 11008 11009 11010 11011 11012 11013 11014 11015 11016 11017 11017 11018 11018 11018 11018 11018 11018 11019 11019 11018 11018 11018 11018 11018 11018 11018 11018 11018 11017 11017 11016 11015 11015 11015 11016 11017 11018 11019 11019 11019 11020 11020 11020 11020 11019 11019 11019 11018 11018 11018 11017 11017 11016 11016 11016 11015 11015 11014 11014 11013 11013 11013 11012 11012 11011 11011 11010 11010 11010 11009 11009 11008 11008
10982 10983 10984 10984 10984 10986 10989 10992 10994 10997 11000 11002 11003 11004 11005 11006 11007 11008 11010 11012 11013 11013 11014 11014 11014 11015 11016 11015 11015 11017 11017 11016 11016 11016 11016 11016 11017 11016 11016 11015 11014 11013 11013 11012 11013 11014 11014 11015 11016 11016 11017 11017 11018 11018 11019 11019 11019 11018 11018 11018 11018 11017 11017 11017 11016 11016 11015 11014 11014 11013 11013 11013 11012 11011 11011 11011 11010 11010 11010 11009 11009 11009 11008 11007 11007
10974 10975 10976 10977 10979 10981 10983 10986 10988 10991 10994 10996 10997 10999 11001 11002 11002 11003 11005 11007 11008 11008 11009 11010 11011 11012 11012 11012 11012 11013 11014 11013 11013 11013 11014 11014 11014 11014 11014 11013 11011 11010 11010 11010 11011 11012 11013 11013 11013 11014 11015 11015 11016 11016 11017 11017 11017 11017 11017 11016 11016 11016 11015 11015 11015 11015 11014 11013 11013 11012 11012 11011 11011 11010 11009 11009 11009 11009 11008 11008 11008 11008 11007 11007 11006
10966 10967 10969 10970 10972 10975 10978 10980 10983 10986 10989 10990 10991 10994 10996 10997 10998 10998 11000 11002 11003 11004 11005 11006 11008 11008 11009 11009 11009 11009 11010 11010 11010 11010 11010 11011 11011 11011 11011 11010 11008 11008 11008 11008 11009 11011 11011 11010 11011 11011 11012 11013 11013 11014 11014 11014 11014 11014 11014 11014 11014 11014 11013 11013 11013 11013 11013 11012 11012 11011 11010 11010 11009 11009 11008 11007 11007 11007 11007 11007 11006 11006 11006 11006 11005
10956 10957 10961 10963 10965 10969 10971 10974 10977 10980 10982 10983 10985 10987 10989 10991 10993 10993 10995 10996 10997 10998 11000 11002 11004 11004 11004 11005 11006 11006 11006 11006 11007 11007 11008 11008 11008 11008 11009 11008 11006 11006 11006 11005 11006 11008 11008 11008 11008 11009 11009 11010 11010 11011 11011 11011 11011 11012 11012 11012 11012 11011 11011 11011 11011 11011 11010 11010 11010 11010 11009 11008 11008 11007 11007 11006 11005 11005 11006 11005 11004 11004 11004 11004 11004
10946 10949 10953 10957 10959 10962 10964 10967 10971 10973 10974 10976 10979 10981 10983 10985 10987 10988 10990 10990 10990 10992 10994 10996 10998 11000 11000 11001 11001 11002 11002 11002 11003 11004 11004 11005 11006 11006 11005 11004 11004 11004 11003 11002 11003 11004 11005 11005 11005 11006 11006 11006 11007 11008 11008 11008 11008 11008 11009 11009 11009 11008 11008 11009 11009 11008 11008 11008 11007 11007 11007 11006 11006 11005 11005 11004 11003 11004 11004 11003 11003 11002 11002 11002 11002
10939 10942 10946 10950 10954 10955 10957 10960 10962 10965 10967 10969 10972 10974 10976 10979 10981 10983 10984 10985 10985 10986 10988 10990 10992 10994 10995 10995 10996 10997 10998 10998 10998 10999 11000 11001 11002 11002 11001 11000 11000 11000 11000 10999 11000 11001 11001 11002 11002 11002 11003 11003 11004 11004 11005 11005 11005 11005 11005 11005 11006 11006 11005 11006 11006 11006 11005 11005 11005 11004 11004 11004 11004 11003 11002 11001 11001 11001 11002 11001 11001 11000 11000 11000 11000
10933 10936 10940 10944 10947 10949 10952 10953 10955 10958 10960 10962 10965 10967 10970 10973 10974 10975 10977 10980 10981 10981 10982 10984 10986 10987 10989 10990 10991 10992 10993 10993 10993 10993 10994 10996 10997 10996 10996 10996 10995 10995 10995 10995 10996 10996 10997 10998 10998 10999 10999 11000 11000 11001 11001 11001 11001 11001 11002 11002 11002 11002 11003 11003 11003 11003 11003 11002 11002 11002 11001 11001 11001 11001 11000 10999 10999 10999 10999 10999 10999 10999 10999 10998 10998
10927 10930 10934 10937 10940 10942 10945 10947 10949 10951 10953 10955 10957 10959 10962 10965 10966 10968 10970 10973 10975 10977 10978 10979 10980 10981 10982 10983 10985 10986 10987 10987 10987 10988 10988 10989 10990 10990 10990 10991 10991 10991 10990 10990 10991 10992 10992 10993 10994 10994 10995 10996 10996 10997 10997 10998 10998 10998 10998 10998 10998 10999 10999 10999 10999 10999 10999 10999 10999 10999 10999 10998 10998 10998 10997 10996 10996 10997 10997 10996 10996 10997 10996 10996 10996
10919 10922 10926 10930 10932 10935 10938 10941 10943 10945 10946 10948 10950 10952 10954 10956 10958 10960 10964 10967 10969 10971 10972 10972 10973 10974 10975 10976 10978 10979 10979 10980 10980 10982 10982 10982 10983 10984 10985 10986 10986 10986 10985 10985 10986 10986 10987 10987 10988 10989 10990 10991 10991 10992 10992 10993 10994 10994 10994 10994 10994 10994 10995 10995 10995 10996 10996 10996 10996 10996 10996 10995 10995 10995 10995 10994 10993 10994 10994 10994 10994 10994 10993 10993 10993
10911 10914 10918 10921 10925 10928 10930 10933 10936 10939 10941 10941 10942 10944 10946 10948 10951 10953 10956 10960 10963 10964 10964 10964 10966 10967 10968 10969 10970 10971 10972 10973 10974 10975 10975 10974 10975 10977 10978 10978 10979 10980 10980 10980 10981 10981 10981 10981 10982 10982 10984 10985 10986 10987 10987 10988 10989 10989 10989 10990 10990 10990 10990 10991 10991 10991 10992 10992 10992 10992 10992 10992 10992 10992 10992 10991 10990 10990 10991 10991 10991 10991 10990 10990 10990
10903 10906 10909 10912 10916 10920 10923 10925 10928 10932 10934 10935 10936 10937 10938 10940 10943 10946 10948 10952 10955 10956 10956 10957 10959 10959 10959 10961 10963 10964 10966 10967 10968 10969 10968 10967 10967 10969 10970 10971 10972 10972 10973 10974 10975 10975 10975 10975 10976 10976 10977 10978 10980 10981 10981 10982 10983 10984 10984 10985 10985 10986 10986 10986 10986 10986 10987 10988 10988 10988 10988 10988 10988 10989 10989 10988 10987 10987 10987 10986 10987 10987 10986 10986 10986
10895 10898 10901 10904 10909 10912 10914 10917 10919 10922 10926 10929 10931 10931 10932 10933 10935 10938 10941 10944 10946 10948 10948 10950 10952 10952 10953 10955 10956 10957 10959 10960 10961 10961 10960 10959 10960 10961 10963 10964 10964 10964 10965 10967 10967 10968 10968 10968 10970 10971 10971 10972 10972 10973 10974 10975 10976 10977 10978 10979 10980 10980 10980 10980 10980 10980 10981 10982 10983 10984 10984 10984 10984 10984 10984 10984 10984 10983 10982 10982 10982 10983 10982 10981 10981
10886 10889 10891 10894 10899 10903 10905 10908 10911 10913 10916 10921 10924 10925 10926 10928 10929 10930 10932 10935 10937 10939 10940 10942 10944 10945 10947 10948 10949 10951 10952 10953 10953 10953 10953 10952 10952 10954 10956 10957 10957 10957 10959 10960 10960 10960 10961 10962 10963 10964 10965 10966 10966 10966 10967 10968 10969 10970 10971 10972 10973 10974 10974 10974 10973 10972 10973 10975 10976 10977 10978 10978 10978 10978 10979 10979 10978 10978 10977 10977 10978 10977 10977 10976 10976
10875 10878 10881 10883 10887 10892 10894 10897 10901 10904 10907 10911 10915 10917 10919 10921 10922 10923 10925 10927 10928 10930 10932 10934 10936 10938 10939 10940 10941 10943 10945 10945 10945 10944 10945 10946 10946 10948 10949 10949 10949 10950 10951 10952 10953 10954 10955 10955 10955 10957 10958 10959 10960 10960 10960 10961 10962 10963 10964 10964 10965 10965 10966 10966 10965 10964 10966 10968 10969 10969 10970 10970 10971 10971 10971 10972 10971 10971 10972 10972 10971 10970 10970 10970 10971
10862 10866 10869 10872 10876 10880 10882 10885 10890 10894 10897 10901 10904 10908 10910 10912 10913 10915 10918 10919 10920 10922 10923 10925 10928 10930 10930 10931 10933 10935 10936 10937 10936 10936 10937 10939 10940 10941 10942 10941 10940 10940 10943 10944 10945 10946 10947 10947 10948 10949 10950 10952 10952 10953 10953 10954 10954 10955 10956 10957 10957 10957 10956 10956 10956 10956 10958 10960 10960 10961 10962 10962 10963 10963 10963 10963 10963 10963 10965 10965 10964 10963 10963 10963 10964
10851 10853 10856 10860 10864 10867 10870 10874 10878 10882 10886 10890 10894 10897 10899 10900 10902 10904 10907 10910 10912 10913 10914 10917 10920 10920 10920 10922 10925 10927 10927 10927 10928 10928 10929 10931 10933 10933 10934 10933 10932 10932 10934 10936 10937 10938 10939 10939 10940 10941 10942 10943 10945 10945 10945 10945 10946 10947 10949 10949 10949 10949 10948 10948 10948 10949 10950 10951 10951 10952 10953 10953 10953 10953 10954 10954 10954 10955 10956 10956 10955 10955 10955 10955 10955
10840 10842 10845 10849 10852 10854 10856 10861 10866 10869 10874 10879 10883 10885 10886 10888 10890 10893 10895 10898 10901 10902 10904 10907 10910 10911 10910 10911 10914 10916 10917 10917 10918 10919 10920 10921 10922 10923 10924 10924 10924 10924 10925 10927 10928 10930 10931 10931 10932 10933 10934 10935 10936 10936 10936 10937 10938 10939 10940 10940 10940 10940 10940 10940 10940 10941 10941 10941 10943 10944 10944 10944 10943 10943 10944 10944 10945 10945 10946 10946 10945 10946 10946 10946 10946
10828 10831 10835 10839 10842 10843 10844 10849 10853 10856 10860 10866 10870 10873 10875 10876 10878 10881 10883 10886 10888 10890 10892 10894 10897 10900 10901 10902 10903 10905 10906 10907 10909 10909 10910 10911 10912 10913 10914 10915 10915 10915 10915 10917 10918 10920 10922 10922 10923 10924 10925 10926 10926 10926 10927 10928 10930 10931 10932 10931 10930 10931 10931 10931 10931 10931 10930 10931 10933 10935 10935 10934 10933 10933 10934 10934 10934 10935 10935 10935 10935 10936 10936 10936 10936
10815 10819 10823 10826 10829 10831 10833 10837 10840 10842 10847 10852 10857 10860 10863 10864 10866 10868 10871 10874 10875 10877 10879 10881 10884 10887 10888 10890 10892 10894 10896 10897 10898 10899 10900 10901 10902 10903 10904 10905 10906 10906 10906 10907 10908 10909 10911 10912 10912 10912 10913 10914 10915 10916 10917 10919 10921 10923 10924 10922 10921 10920 10920 10920 10920 10920 10919 10920 10923 10924 10924 10924 10923 10922 10922 10923 10923 10924 10924 10925 10925 10925 10925 10925 10924
10803 10807 10811 10814 10816 10819 10821 10824 10826 10829 10833 10838 10843 10847 10849 10851 10854 10857 10859 10861 10862 10864 10865 10868 10870 10872 10874 10876 10878 10882 10885 10886 10887 10888 10889 10891 10892 10892 10893 10894 10895 10896 10896 10898 10899 10899 10899 10900 10899 10899 10900 10901 10902 10904 10905 10907 10910 10912 10913 10911 10910 10909 10909 10909 10909 10909 10909 10909 10911 10912 10912 10911 10911 10910 10910 10911 10911 10912 10913 10914 10915 10914 10914 10913 10912
10790 10794 10799 10802 10804 10806 10808 10811 10814 10816 10820 10824 10830 10833 10834 10837 10841 10845 10846 10848 10850 10852 10854 10855 10856 10858 10860 10862 10863 10866 10870 10873 10875 10877 10878 10879 10880 10881 10882 10883 10884 10884 10886 10887 10888 10888 10887 10887 10887 10887 10888 10889 10890 10891 10893 10894 10897 10899 10899 10898 10896 10897 10898 10900 10900 10899 10898 10898 10899 10898 10897 10897 10896 10897 10898 10899 10900 10901 10902 10902 10902 10902 10902 10901 10900
10778 10781 10785 10789 10791 10793 10795 10797 10800 10803 10807 10811 10815 10818 10820 10823 10827 10830 10832 10833 10836 10839 10841 10843 10844 10846 10848 10849 10850 10851 10853 10857 10861 10864 10866 10867 10868 10868 10869 10870 10871 10872 10873 10874 10874 10874 10874 10875 10876 10876 10876 10877 10877 10879 10880 10881 10882 10884 10885 10885 10883 10883 10884 10887 10889 10889 10889 10889 10887 10885 10883 10882 10882 10883 10884 10885 10886 10888 10889 10889 10889 10888 10888 10887 10886
10765 10768 10771 10774 10777 10779 10782 10783 10786 10789 10794 10798 10801 10803 10805 10809 10812 10815 10818 10820 10822 10825 10827 10829 10832 10833 10833 10834 10836 10839 10841 10843 10845 10848 10851 10853 10855 10856 10857 10857 10857 10857 10859 10860 10860 10860 10861 10863 10864 10864 10864 10864 10864 10865 10867 10868 10869 10870 10871 10872 10872 10872 10872 10873 10874 10875 10876 10876 10875 10873 10872 10870 10869 10870 10871 10873 10874 10875 10875 10875 10874 10873 10873 10873 10872
10752 10754 10756 10759 10762 10765 10768 10770 10772 10775 10779 10783 10787 10789 10791 10794 10798 10800 10803 10806 10808 10810 10813 10816 10818 10818 10816 10818 10822 10827 10830 10832 10832 10833 10834 10836 10838 10841 10843 10844 10844 10844 10845 10845 10845 10846 10847 10849 10850 10850 10850 10851 10851 10852 10854 10856 10857 10857 10857 10857 10859 10861 10862 10862 10862 10862 10862 10861 10860 10860 10859 10858 10857 10858 10860 10861 10862 10862 10861 10860 10860 10859 10859 10858 10857
10737 10739 10742 10745 10747 10750 10752 10755 10758 10761 10764 10768 10772 10775 10777 10780 10783 10786 10788 10790 10792 10796 10800 10803 10803 10800 10799 10802 10809 10814 10816 10818 10820 10821 10821 10822 10823 10824 10826 10828 10829 10830 10831 10831 10831 10831 10832 10833 10835 10836 10836 10837 10838 10840 10841 10842 10843 10843 10842 10842 10844 10847 10850 10851 10851 10850 10849 10848 10847 10846 10846 10846 10847 10848 10849 10850 10850 10849 10847 10847 10847 10846 10846 10846 10845
10723 10726 10729 10731 10732 10734 10737 10740 10743 10746 10750 10753 10756 10759 10762 10765 10768 10771 10774 10775 10778 10782 10787 10788 10787 10784 10783 10786 10793 10799 10801 10804 10806 10808 10808 10809 10808 10809 10811 10813 10813 10813 10814 10815 10815 10815 10816 10817 10819 10821 10823 10823 10824 10826 10827 10828 10827 10825 10825 10826 10828 10832 10836 10838 10838 10837 10835 10833 10832 10832 10832 10833 10835 10837 10839 10839 10838 10836 10835 10834 10833 10833 10832 10832 10831
10708 10710 10713 10715 10716 10719 10721 10724 10727 10730 10734 10737 10740 10744 10747 10750 10752 10755 10758 10761 10764 10768 10771 10772 10771 10770 10769 10771 10776 10781 10786 10789 10791 10792 10793 10794 10793 10794 10796 10798 10798 10798 10798 10799 10800 10799 10799 10800 10802 10804 10806 10808 10810 10811 10812 10811 10809 10807 10807 10809 10813 10818 10821 10822 10822 10820 10819 10817 10816 10817 10818 10819 10821 10823 10823 10823 10823 10822 10822 10821 10821 10820 10819 10818 10817
10692 10694 10696 10698 10699 10701 10704 10707 10711 10714 10717 10721 10725 10729 10732 10734 10736 10739 10742 10745 10749 10753 10756 10757 10757 10756 10754 10754 10757 10763 10769 10774 10777 10778 10778 10777 10776 10777 10779 10782 10783 10783 10784 10784 10786 10786 10786 10785 10785 10786 10789 10792 10796 10798 10797 10794 10791 10790 10791 10794 10799 10804 10806 10805 10803 10801 10799 10799 10800 10802 10803 10805 10806 10806 10806 10806 10805 10805 10804 10804 10804 10804 10804 10803 10803
10675 10676 10677 10679 10681 10683 10686 10690 10694 10697 10701 10705 10710 10714 10716 10717 10718 10721 10725 10729 10733 10737 10740 10742 10743 10743 10740 10738 10739 10742 10748 10757 10764 10766 10764 10761 10759 10759 10761 10764 10767 10770 10770 10769 10769 10770 10771 10771 10771 10772 10773 10776 10779 10780 10779 10776 10774 10774 10777 10782 10786 10788 10787 10785 10783 10782 10781 10781 10782 10784 10786 10787 10788 10787 10787 10787 10787 10787 10786 10786 10785 10785 10785 10785 10785
10655 10657 10659 10660 10662 10664 10669 10675 10678 10681 10685 10688 10692 10695 10697 10699 10700 10704 10708 10713 10717 10720 10723 10725 10727 10729 10727 10724 10722 10723 10728 10737 10747 10752 10752 10748 10745 10743 10744 10746 10749 10752 10755 10754 10753 10752 10753 10755 10757 10759 10760 10759 10759 10759 10759 10759 10759 10760 10763 10767 10769 10769 10767 10766 10766 10766 10766 10765 10764 10765 10767 10769 10769 10768 10768 10767 10767 10767 10768 10768 10767 10767 10766 10766 10765
10636 10637 10639 10642 10643 10646 10652 10658 10661 10663 10666 10669 10672 10676 10680 10682 10684 10687 10692 10696 10699 10703 10707 10709 10711 10712 10713 10711 10708 10708 10711 10718 10727 10733 10735 10735 10732 10729 10729 10730 10731 10733 10736 10737 10736 10735 10736 10739 10742 10745 10745 10742 10740 10740 10741 10744 10745 10746 10747 10747 10748 10748 10749 10749 10749 10749 10749 10748 10747 10748 10749 10749 10749 10749 10749 10748 10748 10747 10747 10747 10748 10748 10747 10747 10746
10619 10622 10622 10623 10626 10629 10635 10639 10642 10644 10647 10650 10654 10658 10662 10664 10666 10670 10674 10678 10681 10684 10689 10693 10695 10696 10697 10696 10694 10692 10694 10699 10705 10711 10715 10719 10719 10716 10714 10712 10712 10713 10716 10718 10719 10720 10721 10723 10725 10726 10725 10723 10722 10723 10727 10730 10730 10729 10728 10727 10727 10728 10729 10730 10731 10732 10731 10730 10730 10731 10731 10730 10730 10729 10730 10729 10729 10728 10728 10728 10727 10727 10727 10726 10726
10601 10607 10608 10607 10607 10610 10615 10619 10622 10626 10629 10631 10635 10640 10643 10645 10649 10654 10657 10660 10662 10664 10668 10673 10678 10681 10682 10681 10679 10677 10678 10681 10686 10690 10695 10700 10703 10702 10699 10696 10693 10692 10694 10698 10703 10705 10707 10707 10707 10705 10704 10704 10705 10707 10711 10713 10713 10711 10710 10709 10707 10707 10708 10710 10712 10713 10712 10711 10710 10711 10711 10711 10710 10710 10709 10709 10709 10709 10708 10708 10707 10707 10706 10706 10705
10579 10585 10588 10589 10588 10587 10589 10594 10602 10610 10614 10616 10618 10622 10625 10628 10632 10636 10639 10640 10642 10644 10647 10652 10658 10663 10667 10668 10666 10663 10662 10664 10667 10670 10674 10680 10684 10686 10685 10682 10679 10676 10675 10678 10681 10685 10687 10689 10690 10688 10686 10686 10687 10689 10691 10693 10694 10693 10692 10690 10688 10687 10689 10691 10692 10692 10692 10691 10691 10691 10691 10690 10690 10690 10689 10689 10689 10688 10688 10687 10687 10686 10686 10685 10684
10560 10560 10561 10564 10567 10567 10568 10572 10579 10588 10596 10601 10604 10606 10607 10608 10611 10615 10619 10622 10623 10623 10626 10630 10636 10643 10649 10652 10653 10650 10647 10645 10646 10648 10652 10658 10664 10667 10669 10668 10665 10662 10660 10659 10660 10663 10666 10669 10670 10669 10668 10669 10669 10670 10671 10673 10673 10673 10671 10669 10668 10669 10671 10672 10671 10671 10671 10672 10672 10671 10671 10670 10669 10669 10669 10669 10668 10668 10667 10666 10666 10665 10664 10664 10663
10541 10538 10535 10537 10542 10547 10552 10556 10561 10567 10574 10582 10586 10587 10587 10587 10590 10594 10599 10603 10604 10604 10605 10609 10614 10621 10626 10631 10634 10634 10631 10626 10625 10626 10631 10636 10641 10645 10648 10649 10648 10646 10643 10641 10641 10643 10647 10649 10650 10649 10649 10649 10649 10651 10653 10654 10654 10652 10651 10650 10650 10651 10652 10652 10651 10651 10651 10652 10652 10652 10651 10650 10649 10649 10648 10648 10648 10647 10646 10645 10645 10644 10643 10642 10641
10519 10518 10517 10519 10524 10529 10534 10539 10545 10551 10556 10561 10563 10564 10566 10569 10573 10576 10579 10582 10585 10588 10590 10591 10593 10597 10601 10606 10610 10613 10612 10609 10607 10608 10611 10614 10618 10622 10625 10628 10629 10627 10623 10620 10621 10625 10629 10631 10630 10629 10628 10627 10628 10630 10632 10633 10633 10631 10631 10630 10631 10632 10632 10632 10631 10631 10631 10631 10631 10631 10631 10630 10630 10629 10629 10628 10627 10626 10625 10624 10623 10623 10622 10621 10620
10501 10501 10502 10504 10507 10511 10513 10516 10522 10530 10537 10540 10542 10545 10548 10551 10554 10556 10557 10559 10564 10570 10575 10576 10575 10575 10576 10580 10584 10588 10592 10593 10592 10590 10590 10590 10593 10598 10604 10607 10609 10606 10601 10598 10599 10605 10610 10612 10611 10608 10607 10607 10608 10610 10611 10612 10611 10611 10610 10610 10611 10611 10611 10611 10611 10611 10610 10610 10611 10610 10609 10609 10609 10608 10608 10607 10606 10605 10604 10603 10602 10601 10601 10600 10598
10488 10488 10487 10485 10486 10490 10495 10498 10503 10510 10517 10521 10524 10528 10531 10534 10536 10538 10539 10540 10543 10549 10553 10556 10556 10555 10555 10558 10562 10566 10570 10572 10572 10570 10569 10569 10571 10576 10580 10584 10586 10585 10581 10578 10580 10584 10588 10590 10590 10589 10588 10587 10588 10589 10590 10590 10590 10590 10591 10591 10591 10591 10591 10590 10590 10590 10590 10590 10590 10589 10588 10588 10588 10587 10587 10586 10585 10584 10583 10582 10581 10580 10579 10578 10576